Terminal Aerodrome Forecast
Issued by NWS New Orleans/Baton Rouge, LA

Home | Current Version | Previous Version | Text Only | Print | Product List | Glossary On
Versions: 1 2 3 4 5 6 7 8 9 10 11 12 13 14 15 16 17 18 19 20 21 22 23 24 25 26 27 28 29 30 31 32 33 34
000
FTUS44 KLIX 230256 AAG
TAFBTR
TAF AMD
KBTR 230256Z 2303/2324 12005KT P6SM BKN008
     FM230700 00000KT P6SM BKN003
     FM230900 00000KT 3SM BR BKN003
     FM231500 00000KT P6SM VCSH BKN015
     FM231800 VRB04KT 5SM -SHRA BR VCTS SCT025CB BKN035=

USA.gov is the U.S. government's official web portal to all federal, state and local government web resources and services.